WC1Z Weather Reports


Display with metric or nautical units.
time (UTC)temp
F
wind
direction
speed
MPH
gust
MPH
rain 1hr
in
rain 24hr
in
rain mn
in
humidity
%
barometer
mb
20260901175700 92 96 1.0 3.0 0.00 0.00 0.00 54 1015.6
20260901175201 92 113 6.0 10.0 0.00 0.00 0.00 55 1015.7
20260901174700 92 156 6.0 9.0 0.00 0.00 0.00 54 1015.8
20260901174200 92 205 2.0 5.0 0.00 0.00 0.00 55 1015.8
20260901173701 92 101 6.0 9.0 0.00 0.00 0.00 54 1016.0
20260901173201 92 78 4.0 8.0 0.00 0.00 0.00 55 1016.0
20260901172702 91 156 5.0 11.0 0.00 0.00 0.00 56 1016.1
20260901172200 91 175 4.0 6.0 0.00 0.00 0.00 57 1016.2
20260901171702 91 88 6.0 10.0 0.00 0.00 0.00 56 1016.3
20260901171200 90 57 5.0 6.0 0.00 0.00 0.00 57 1016.3
20260901170701 90 91 8.0 13.0 0.00 0.00 0.00 56 1016.4
20260901170201 90 99 3.0 6.0 0.00 0.00 0.00 57 1016.5
20260901165700 89 69 6.0 10.0 0.00 0.00 0.00 59 1016.6
20260901165200 90 88 4.0 6.0 0.00 0.00 0.00 59 1016.7
20260901164700 90 88 5.0 8.0 0.00 0.00 0.00 60 1016.9
20260901164201 89 62 4.0 6.0 0.00 0.00 0.00 60 1017.0
20260901163702 89 115 5.0 8.0 0.00 0.00 0.00 61 1017.1
20260901163200 88 111 3.0 8.0 0.00 0.00 0.00 62 1017.2
20260901162700 88 82 3.0 5.0 0.00 0.00 0.00 63 1017.3
20260901162200 88 100 4.0 7.0 0.00 0.00 0.00 62 1017.3
20260901161701 89 84 4.0 6.0 0.00 0.00 0.00 62 1017.2
20260901161201 88 103 6.0 10.0 0.00 0.00 0.00 62 1017.2
20260901160700 88 81 3.0 4.0 0.00 0.00 0.00 64 1017.2
20260901160200 88 109 6.0 10.0 0.00 0.00 0.00 63 1017.2
20260901155700 88 76 5.0 8.0 0.00 0.00 0.00 63 1017.2
20260901155200 87 56 4.0 9.0 0.00 0.00 0.00 64 1017.1
20260901154700 87 72 5.0 7.0 0.00 0.00 0.00 64 1017.2
20260901154200 87 116 4.0 5.0 0.00 0.00 0.00 63 1017.2
20260901153701 87 68 6.0 9.0 0.00 0.00 0.00 64 1017.2
20260901153200 87 360 3.0 6.0 0.00 0.00 0.00 64 1017.2
20260901152701 86 158 2.0 4.0 0.00 0.00 0.00 66 1017.2
20260901152201 86 87 4.0 9.0 0.00 0.00 0.00 66 1017.2
20260901151700 86 114 3.0 9.0 0.00 0.00 0.00 67 1017.3
20260901151200 86 77 5.0 7.0 0.00 0.00 0.00 68 1017.3
20260901150701 86 116 6.0 9.0 0.00 0.00 0.00 68 1017.4
20260901150202 86 89 7.0 10.0 0.00 0.00 0.00 68 1017.3
20260901145701 85 45 3.0 6.0 0.00 0.00 0.00 72 1017.4
20260901145201 85 71 2.0 5.0 0.00 0.00 0.00 73 1017.4
20260901144701 84 67 4.0 6.0 0.00 0.00 0.00 73 1017.4
20260901144200 84 102 6.0 8.0 0.00 0.00 0.00 75 1017.4
20260901143700 84 88 2.0 4.0 0.00 0.00 0.00 76 1017.4
20260901143201 84 50 2.0 5.0 0.00 0.00 0.00 76 1017.4
20260901142700 84 114 3.0 6.0 0.00 0.00 0.00 76 1017.4
20260901142202 84 114 3.0 7.0 0.00 0.00 0.00 76 1017.4
20260901141701 84 99 3.0 4.0 0.00 0.00 0.00 76 1017.4
20260901141200 84 122 3.0 4.0 0.00 0.00 0.00 76 1017.4
20260901140702 83 61 2.0 4.0 0.00 0.00 0.00 78 1017.4
20260901140200 83 85 1.0 3.0 0.00 0.00 0.00 79 1017.4
20260901135700 82 89 2.0 3.0 0.00 0.00 0.00 79 1017.5
20260901135200 82 78 3.0 5.0 0.00 0.00 0.00 80 1017.5
20260901134701 82 132 2.0 3.0 0.00 0.00 0.00 81 1017.6
20260901134201 82 92 3.0 4.0 0.00 0.00 0.00 82 1017.6
20260901133701 81 63 2.0 3.0 0.00 0.00 0.00 82 1017.5
20260901133200 81 101 3.0 4.0 0.00 0.00 0.00 82 1017.5
20260901132700 81 89 2.0 4.0 0.00 0.00 0.00 82 1017.4
20260901132200 81 111 2.0 4.0 0.00 0.00 0.00 82 1017.5
20260901131700 80 360 0.0 0.0 0.00 0.00 0.00 84 1017.4
20260901131200 78 150 0.0 2.0 0.00 0.00 0.00 87 1017.3
20260901130702 77 160 0.0 2.0 0.00 0.00 0.00 89 1017.2
20260901130201 76 169 2.0 3.0 0.00 0.00 0.00 90 1017.1
20260901125700 75 142 0.0 2.0 0.00 0.00 0.00 92 1016.9
20260901125201 74 7 0.0 0.0 0.00 0.00 0.00 92 1016.8
20260901124700 74 360 0.0 0.0 0.00 0.00 0.00 92 1016.8
20260901124200 73 360 0.0 0.0 0.00 0.00 0.00 93 1016.8
20260901123703 73 183 1.0 1.0 0.00 0.00 0.00 93 1016.7
20260901123201 72 360 0.0 0.0 0.00 0.00 0.00 93 1016.6
20260901122700 72 157 1.0 2.0 0.00 0.00 0.00 93 1016.4
20260901122201 72 71 0.0 0.0 0.00 0.00 0.00 93 1016.4
20260901121700 72 93 0.0 0.0 0.00 0.00 0.00 93 1016.4
20260901121200 72 360 0.0 0.0 0.00 0.00 0.00 93 1016.4
20260901120701 72 112 0.0 1.0 0.00 0.00 0.00 92 1016.3
20260901120201 72 360 0.0 0.0 0.00 0.00 0.00 92 1016.3
20260901115700 72 164 2.0 2.0 0.00 0.00 0.00 92 1016.2
20260901115200 72 172 0.0 1.0 0.00 0.00 0.00 92 1016.1
20260901114700 72 140 0.0 0.0 0.00 0.00 0.00 92 1016.1
20260901114200 72 360 0.0 0.0 0.00 0.00 0.00 92 1016.1
20260901113701 72 360 0.0 0.0 0.00 0.00 0.00 92 1016.0
20260901113201 72 360 0.0 0.0 0.00 0.00 0.00 92 1016.0
20260901112700 72 360 0.0 0.0 0.00 0.00 0.00 92 1016.0
20260901112201 73 360 0.0 0.0 0.00 0.00 0.00 92 1016.0
20260901111700 73 360 0.0 0.0 0.00 0.00 0.00 92 1016.1
20260901111200 73 360 0.0 0.0 0.00 0.00 0.00 92 1016.2
20260901110700 73 146 0.0 0.0 0.00 0.00 0.00 92 1016.2
20260901110201 73 360 0.0 0.0 0.00 0.00 0.00 91 1016.1
20260901105701 73 360 0.0 0.0 0.00 0.00 0.00 91 1016.1
20260901105200 73 202 0.0 0.0 0.00 0.00 0.00 91 1016.1
20260901104706 73 360 0.0 0.0 0.00 0.00 0.00 91 1016.0
20260901104200 73 360 0.0 0.0 0.00 0.00 0.00 91 1016.0
20260901103700 73 360 0.0 0.0 0.00 0.00 0.00 91 1016.0
20260901103202 73 360 0.0 0.0 0.00 0.00 0.00 91 1016.0
20260901102701 73 360 0.0 0.0 0.00 0.00 0.00 91 1015.9
20260901102201 73 360 0.0 0.0 0.00 0.00 0.00 91 1015.8
20260901101701 73 360 0.0 0.0 0.00 0.00 0.00 91 1015.8
20260901101201 73 116 0.0 1.0 0.00 0.00 0.00 91 1015.8
20260901100700 73 360 0.0 0.0 0.00 0.00 0.00 90 1015.8
20260901100201 73 130 0.0 0.0 0.00 0.00 0.00 90 1015.8
20260901095700 73 360 0.0 0.0 0.00 0.00 0.00 90 1015.7
20260901095200 73 360 0.0 0.0 0.00 0.00 0.00 90 1015.7
20260901094700 73 360 0.0 0.0 0.00 0.00 0.00 90 1015.7
20260901094212 73 360 0.0 0.0 0.00 0.00 0.00 90 1015.8
20260901093700 74 360 0.0 0.0 0.00 0.00 0.00 90 1015.8
20260901093200 74 261 1.0 1.0 0.00 0.00 0.00 90 1015.8
20260901092700 74 360 0.0 0.0 0.00 0.00 0.00 90 1015.9
20260901092202 74 360 0.0 0.0 0.00 0.00 0.00 89 1015.9
20260901091700 74 193 0.0 0.0 0.00 0.00 0.00 89 1015.9
20260901091200 74 360 0.0 0.0 0.00 0.00 0.00 89 1015.9
20260901090700 74 360 0.0 0.0 0.00 0.00 0.00 89 1015.9
20260901090200 74 360 0.0 0.0 0.00 0.00 0.00 89 1015.8
20260901085701 74 360 0.0 0.0 0.00 0.00 0.00 89 1015.8
20260901085201 74 360 0.0 0.0 0.00 0.00 0.00 89 1015.8
20260901084701 74 132 1.0 2.0 0.00 0.00 0.00 89 1015.9
20260901084200 74 360 0.0 0.0 0.00 0.00 0.00 89 1015.8
20260901083700 74 360 0.0 0.0 0.00 0.00 0.00 89 1015.8
20260901083200 74 360 0.0 0.0 0.00 0.00 0.00 88 1015.9
20260901082701 75 360 0.0 0.0 0.00 0.00 0.00 88 1016.0
20260901082201 75 269 0.0 0.0 0.00 0.00 0.00 88 1015.9
20260901081700 75 360 0.0 0.0 0.00 0.00 0.00 88 1015.9
20260901081200 75 360 0.0 0.0 0.00 0.00 0.00 88 1015.8
20260901080700 75 360 0.0 0.0 0.00 0.00 0.00 88 1015.8
20260901080200 75 360 0.0 0.0 0.00 0.00 0.00 88 1015.8
20260901075701 75 360 0.0 0.0 0.00 0.00 0.00 87 1015.9
20260901075200 75 360 0.0 0.0 0.00 0.00 0.00 87 1015.9
20260901074700 75 360 0.0 0.0 0.00 0.00 0.00 87 1015.9
20260901074200 75 360 0.0 0.0 0.00 0.00 0.00 87 1015.9
20260901073701 76 360 0.0 0.0 0.00 0.00 0.00 86 1015.9
20260901073202 76 360 0.0 0.0 0.00 0.00 0.00 86 1015.9
20260901072701 76 360 0.0 0.0 0.00 0.00 0.00 86 1016.0
20260901072201 76 360 0.0 0.0 0.00 0.00 0.00 86 1016.0
20260901071702 76 360 0.0 0.0 0.00 0.00 0.00 86 1016.1
20260901071202 76 360 0.0 0.0 0.00 0.00 0.00 86 1016.1
20260901070700 76 360 0.0 0.0 0.00 0.00 0.00 85 1016.2
20260901070200 76 360 0.0 0.0 0.00 0.00 0.00 85 1016.2
20260901065700 76 360 0.0 0.0 0.00 0.00 0.00 85 1016.2
20260901065200 76 360 0.0 0.0 0.00 0.00 0.00 85 1016.2
20260901064701 76 360 0.0 0.0 0.00 0.00 0.00 85 1016.1
20260901064201 76 360 0.0 0.0 0.00 0.00 0.00 85 1016.1
20260901063701 76 360 0.0 0.0 0.00 0.00 0.00 85 1016.0
20260901063201 77 360 0.0 0.0 0.00 0.00 0.00 84 1016.1
20260901062701 77 360 0.0 0.0 0.00 0.00 0.00 84 1016.1
20260901062201 77 360 0.0 0.0 0.00 0.00 0.00 84 1016.0
20260901061701 77 360 0.0 0.0 0.00 0.00 0.00 83 1016.1
20260901061200 77 360 0.0 0.0 0.00 0.00 0.00 83 1016.1
20260901060701 77 360 0.0 0.0 0.00 0.00 0.00 83 1016.1
20260901060201 78 360 0.0 0.0 0.00 0.00 0.00 82 1016.1
20260901055700 78 360 0.0 0.0 0.00 0.00 0.00 82 1016.1
20260901055202 78 360 0.0 0.0 0.00 0.00 0.00 81 1016.1
20260901054702 78 360 0.0 0.0 0.00 0.00 0.00 81 1016.0
20260901054200 78 360 0.0 0.0 0.00 0.00 0.00 80 1016.0
20260901053700 78 360 0.0 0.0 0.00 0.00 0.00 80 1016.1
20260901053200 79 360 0.0 0.0 0.00 0.00 0.00 79 1016.1
20260901052701 79 360 0.0 0.0 0.00 0.00 0.00 79 1016.1
20260901052201 79 360 0.0 0.0 0.00 0.00 0.00 79 1016.0
20260901051701 80 360 0.0 0.0 0.00 0.00 0.00 78 1015.9
20260901051201 80 360 0.0 0.0 0.00 0.00 0.00 78 1016.0
20260901050700 80 360 0.0 0.0 0.00 0.00 0.00 77 1016.0
20260901050200 80 360 0.0 0.0 0.00 0.00 0.00 77 1016.0
20260901045701 81 360 0.0 0.0 0.00 0.00 0.00 76 1015.9
20260901045200 81 112 0.0 1.0 0.00 0.00 0.00 76 1015.8
20260901044701 81 360 0.0 0.0 0.00 0.00 0.00 76 1015.8
20260901044200 81 360 0.0 0.0 0.00 0.00 0.00 75 1015.8
20260901043700 81 360 0.0 0.0 0.00 0.00 0.00 75 1015.8
20260901043200 81 360 0.0 0.0 0.00 0.00 0.00 75 1015.9
20260901042700 81 360 0.0 0.0 0.00 0.00 0.00 74 1015.8
20260901042200 81 360 0.0 0.0 0.00 0.00 0.00 74 1015.8
20260901041701 81 360 0.0 0.0 0.00 0.00 0.00 74 1015.9
20260901041200 80 203 0.0 0.0 0.00 0.00 0.00 74 1015.8
20260901040701 80 360 0.0 0.0 0.00 0.00 0.00 75 1015.7
20260901040200 79 360 0.0 0.0 0.00 0.00 0.00 76 1015.7
20260901035701 79 360 0.0 0.0 0.00 0.00 0.00 76 1015.7
20260901035203 79 360 0.0 0.0 0.00 0.00 0.00 77 1015.6
20260901034702 79 246 0.0 1.0 0.00 0.00 0.00 77 1015.5
20260901034202 79 360 0.0 0.0 0.00 0.00 0.00 77 1015.5
20260901033701 79 149 0.0 1.0 0.00 0.00 0.00 76 1015.5
20260901033257 79 360 0.0 0.0 0.00 0.00 0.00 76 1015.5
20260901032700 79 360 0.0 0.0 0.00 0.00 0.00 75 1015.4
20260901032201 80 160 0.0 0.0 0.00 0.00 0.00 75 1015.3
20260901031700 80 360 0.0 0.0 0.00 0.00 0.00 74 1015.3
20260901031200 80 360 0.0 0.0 0.00 0.00 0.00 74 1015.3
20260901030701 80 360 0.0 0.0 0.00 0.00 0.00 74 1015.3
20260901030200 80 360 0.0 0.0 0.00 0.00 0.00 72 1015.2
20260901025701 80 360 0.0 0.0 0.00 0.00 0.00 72 1015.2
20260901025200 81 360 0.0 0.0 0.00 0.00 0.00 72 1015.2
20260901024700 81 360 0.0 0.0 0.00 0.00 0.00 72 1015.1
20260901024202 81 360 0.0 0.0 0.00 0.00 0.00 71 1015.1
20260901023700 82 360 0.0 0.0 0.00 0.00 0.00 71 1015.0
20260901023200 82 360 0.0 0.0 0.00 0.00 0.00 70 1014.9
20260901022702 82 360 0.0 0.0 0.00 0.00 0.00 70 1014.8
20260901022200 83 360 0.0 0.0 0.00 0.00 0.00 69 1014.8
20260901021700 83 360 0.0 0.0 0.00 0.00 0.00 68 1014.8
20260901021200 83 360 0.0 0.0 0.00 0.00 0.00 67 1014.8
20260901020701 84 360 0.0 0.0 0.00 0.00 0.00 67 1014.8
20260901020200 84 360 0.0 0.0 0.00 0.00 0.00 66 1014.7
20260901015701 85 360 0.0 0.0 0.00 0.00 0.00 66 1014.6
20260901015200 85 360 0.0 0.0 0.00 0.00 0.00 64 1014.6
20260901014700 86 360 0.0 0.0 0.00 0.00 0.00 63 1014.5
20260901014203 86 360 0.0 0.0 0.00 0.00 0.00 63 1014.5
20260901013700 87 360 0.0 0.0 0.00 0.00 0.00 60 1014.6
20260901013202 88 360 0.0 0.0 0.00 0.00 0.00 59 1014.6
20260901012700 88 360 0.0 0.0 0.00 0.00 0.00 58 1014.5
20260901012201 89 360 0.0 0.0 0.00 0.00 0.00 58 1014.6
20260901011700 89 360 0.0 0.0 0.00 0.00 0.00 55 1014.5
20260901011200 90 360 0.0 0.0 0.00 0.00 0.00 55 1014.5
20260901010701 90 94 1.0 2.0 0.00 0.00 0.00 54 1014.5
20260901010200 91 360 0.0 0.0 0.00 0.00 0.00 54 1014.4
20260901005700 91 124 1.0 2.0 0.00 0.00 0.00 53 1014.4
20260901005201 91 107 0.0 2.0 0.00 0.00 0.00 52 1014.4
20260901004701 92 113 3.0 4.0 0.00 0.00 0.00 52 1014.4
20260901004200 92 88 1.0 3.0 0.00 0.00 0.00 51 1014.3
20260901003700 93 103 2.0 4.0 0.00 0.00 0.00 50 1014.2
20260901003200 93 108 2.0 5.0 0.00 0.00 0.00 50 1014.2
20260901002700 93 128 2.0 6.0 0.00 0.00 0.00 49 1014.2
20260901002200 94 115 3.0 4.0 0.00 0.00 0.00 49 1014.3
20260901001701 94 108 5.0 8.0 0.00 0.00 0.00 48 1014.3
20260901001200 94 118 3.0 4.0 0.00 0.00 0.00 48 1014.3
20260901000701 95 148 3.0 6.0 0.00 0.00 0.00 48 1014.3
20260901000201 95 158 3.0 4.0 0.00 0.00 0.00 47 1014.3
20260831235701 95 132 3.0 5.0 0.00 0.00 0.00 46 1014.3
20260831235200 95 107 5.0 8.0 0.00 0.00 0.00 46 1014.2
20260831234701 95 142 3.0 5.0 0.00 0.00 0.00 45 1014.2
20260831234200 95 107 3.0 5.0 0.00 0.00 0.00 45 1014.2
20260831233701 96 128 4.0 6.0 0.00 0.00 0.00 45 1014.2
20260831233200 96 128 3.0 5.0 0.00 0.00 0.00 45 1014.2
20260831232700 96 120 3.0 5.0 0.00 0.00 0.00 45 1014.2
20260831232200 96 152 1.0 3.0 0.00 0.00 0.00 45 1014.3
20260831231700 96 103 6.0 8.0 0.00 0.00 0.00 45 1014.1
20260831231201 96 91 6.0 9.0 0.00 0.00 0.00 45 1014.0
20260831230700 96 66 4.0 8.0 0.00 0.00 0.00 45 1014.0
20260831230200 96 130 3.0 4.0 0.00 0.00 0.00 45 1014.0
20260831225700 96 95 3.0 6.0 0.00 0.00 0.00 45 1014.0
20260831225201 96 119 4.0 8.0 0.00 0.00 0.00 44 1014.0
20260831224701 96 115 4.0 6.0 0.00 0.00 0.00 45 1014.1
20260831224200 96 187 4.0 5.0 0.00 0.00 0.00 45 1014.1
20260831223701 96 119 4.0 7.0 0.00 0.00 0.00 45 1014.1
20260831223200 96 88 7.0 9.0 0.00 0.00 0.00 45 1014.1
20260831222701 96 76 8.0 9.0 0.00 0.00 0.00 45 1014.1
20260831222201 96 132 5.0 7.0 0.00 0.00 0.00 46 1014.1
20260831221701 96 113 4.0 6.0 0.00 0.00 0.00 46 1014.1
20260831221202 96 115 4.0 6.0 0.00 0.00 0.00 46 1014.2
20260831220701 95 165 5.0 11.0 0.00 0.00 0.00 47 1014.3
20260831220201 95 117 4.0 6.0 0.00 0.00 0.00 47 1014.3
20260831215702 95 109 4.0 7.0 0.00 0.00 0.00 47 1014.3
20260831215201 94 117 4.0 7.0 0.00 0.00 0.00 47 1014.4
20260831214701 94 91 5.0 7.0 0.00 0.00 0.00 48 1014.4
20260831214201 94 85 2.0 4.0 0.00 0.00 0.00 48 1014.4
20260831213701 94 102 3.0 4.0 0.00 0.00 0.00 48 1014.5
20260831212729 95 103 5.0 7.0 0.00 0.00 0.00 48 1014.5
20260831212200 95 86 5.0 8.0 0.00 0.00 0.00 48 1014.6
20260831211701 95 72 4.0 7.0 0.00 0.00 0.00 48 1014.5
20260831211201 95 114 8.0 11.0 0.00 0.00 0.00 48 1014.6
20260831210701 95 95 6.0 8.0 0.00 0.00 0.00 47 1014.7
20260831210200 94 88 3.0 6.0 0.00 0.00 0.00 49 1014.8
20260831205700 94 125 2.0 4.0 0.00 0.00 0.00 50 1014.9
20260831205201 94 84 3.0 5.0 0.00 0.00 0.00 50 1015.0
20260831204701 94 104 7.0 10.0 0.00 0.00 0.00 49 1015.0
20260831204201 95 88 6.0 9.0 0.00 0.00 0.00 48 1015.0
20260831203701 95 82 6.0 7.0 0.00 0.00 0.00 48 1015.0
20260831203201 95 345 4.0 5.0 0.00 0.00 0.00 48 1015.0
20260831202700 94 309 3.0 5.0 0.00 0.00 0.00 49 1015.1
20260831202200 94 26 4.0 6.0 0.00 0.00 0.00 49 1015.2
20260831201701 94 69 3.0 5.0 0.00 0.00 0.00 49 1015.3
20260831201201 94 122 3.0 4.0 0.00 0.00 0.00 49 1015.4
20260831200701 94 116 3.0 4.0 0.00 0.00 0.00 49 1015.4
20260831200200 94 103 3.0 5.0 0.00 0.00 0.00 50 1015.5
20260831195700 94 93 5.0 8.0 0.00 0.00 0.00 50 1015.5
20260831195200 95 29 2.0 5.0 0.00 0.00 0.00 49 1015.5
20260831194701 94 58 4.0 6.0 0.00 0.00 0.00 49 1015.6
20260831194200 93 70 4.0 6.0 0.00 0.00 0.00 51 1015.7
20260831193701 93 116 4.0 6.0 0.00 0.00 0.00 51 1015.8
20260831193200 93 66 2.0 3.0 0.00 0.00 0.00 51 1015.8
20260831192700 93 103 4.0 5.0 0.00 0.00 0.00 51 1015.9
20260831192202 93 77 5.0 7.0 0.00 0.00 0.00 51 1016.0
20260831191702 93 86 3.0 5.0 0.00 0.00 0.00 51 1016.0
20260831191204 94 119 4.0 5.0 0.00 0.00 0.00 51 1016.0
20260831190702 94 93 7.0 10.0 0.00 0.00 0.00 51 1016.0
20260831190201 94 123 5.0 8.0 0.00 0.00 0.00 51 1016.0
20260831185701 94 64 5.0 8.0 0.00 0.00 0.00 51 1016.1
20260831185200 93 112 4.0 6.0 0.00 0.00 0.00 52 1016.2
20260831184701 93 122 5.0 9.0 0.00 0.00 0.00 52 1016.2
20260831184200 94 130 3.0 7.0 0.00 0.00 0.00 52 1016.3
20260831183701 95 98 7.0 10.0 0.00 0.00 0.00 52 1016.4
20260831183204 95 120 5.0 7.0 0.00 0.00 0.00 50 1016.5
20260831182702 94 116 3.0 5.0 0.00 0.00 0.00 52 1016.6
20260831182200 94 64 6.0 9.0 0.00 0.00 0.00 52 1016.6
20260831181700 94 144 4.0 6.0 0.00 0.00 0.00 52 1016.7
20260831181201 94 81 5.0 10.0 0.00 0.00 0.00 51 1016.7
20260831180701 94 159 4.0 9.0 0.00 0.00 0.00 52 1016.7
20260831180200 93 133 5.0 8.0 0.00 0.00 0.00 52 1016.7